Regional Weather Roundup
Issued by NWS Wakefield, VA

Home | Current Version | Previous Version | Graphics & Text | Print | Product List | Glossary On
Versions: 1 2 3 4 5 6 7 8 9 10 11 12 13 14 15 16 17 18 19 20 21 22 23 24 25 26 27 28
000
ASUS41 KAKQ 010015
RWRAKQ

REGIONAL WEATHER ROUNDUP
NATIONAL WEATHER SERVICE WAKEFIELD VA
800 PM EDT WED AUG 31 2016

Note: "fair" indicates few or no clouds below 12,000 feet with no
significant weather and/or obstructions to visibility. * = Denotes
station may not report precipitation (e.g., rain,snow,etc.),
thunder or fog.

VAZ042-051-052>054-056-010100-
NORTHERN VIRGINIA

CITY           SKY/WX    TMP DP  RH WIND       PRES   REMARKS
WASH NATIONAL  CLOUDY    86  70  58 S8        29.88R
DULLES         CLOUDY    84  68  58 S7        29.88R
FORT BELVOIR   CLOUDY    80  71  75 SE2       29.87R
QUANTICO       PTCLDY    85  73  67 S9        29.88R
FREDERICKSBRG* CLOUDY    82  73  72 S8        29.86S
STAFFORD*      CLOUDY    82  70  68 CALM      29.92R
WARRENTON      PTCLDY    79  63  58 CALM      29.88S
CULPEPER*      CLOUDY    75  71  87 CALM      29.89S
MANASSAS*      NOT AVBL
LEESBURG*      CLEAR     86  72  62 S3        29.89R
WINCHESTER     CLOUDY    79  66  65 CALM      29.89R
FRONT ROYAL*   FAIR      81  70  69 CALM      29.88S
LURAY*         FAIR      81  66  61 S3        29.91R
$$

VAZ048-049-060>072-079>083-010100-
CENTRAL AND SOUTH CENTRAL VIRGINIA

CITY           SKY/WX    TMP DP  RH WIND       PRES   REMARKS
RICHMOND       MOCLDY    82  69  64 SE7       29.89R
CHESTERFIELD*  MOCLDY    84  61  45 S6        29.91R
PETERSBURG*    CLOUDY    83  68  60 S3        29.90R
HANOVER        PTCLDY    82  67  60 SE3       29.91R
TAPPAHANNOCK*  CLEAR     82  69  65 SE3       29.90R
QUINTON*       FAIR      83  70  64 CALM      29.89R
CHARLOTTSVILLE CLOUDY    77  69  76 CALM      29.90S
GORDONSVILLE*  MOCLDY    81  73  78 CALM      29.89R
ORANGE*        NOT AVBL
LOUISA*        PTCLDY    84  75  74 SE3       29.87F
BUMPASS*       FAIR      80  72  76 CALM      29.88S
FARMVILLE*     PTCLDY    80  70  70 SW3       29.88S
CREWE*         CLOUDY    82  71  69 S7        29.90S
FORT PICKETT*  FAIR      80  71  74 S7G18     29.91S
CHASE CITY*    FAIR      82  69  66 CALM      29.91R
CLARKSVILLE*   FAIR      82  70  65 CALM      29.90R
SOUTH HILL*    PTCLDY    81  70  70 S5        29.97R
LAWRENCEVILLE* FAIR      82  69  65 CALM      29.91S
EMPORIA*       PTCLDY    81  68  65 CALM      29.92S
$$

VAZ088>098-010100-
SOUTHEAST VIRGINIA

CITY           SKY/WX    TMP DP  RH WIND       PRES   REMARKS
NORFOLK        CLOUDY    80  68  66 S7        29.91S
VIRGINIA BEACH MOCLDY    78  70  76 CALM      29.91R
NORFOLK NAVAL  CLOUDY    81  67  62 S7        29.93R
WEST POINT*    CLOUDY    80  65  59 SE7       29.91R
SALUDA*        FAIR      79  72  80 SE5       29.90R
NEWPORT NEWS   CLOUDY    81  70  69 SE7       29.91R
LANGLEY AFB    CLOUDY    81  70  69 S6        29.91R
FORT EUSTIS    CLOUDY    82  70  67 S8        29.88S
WILLIAMSBURG*  CLOUDY    84  70  61 SE8       29.91R
HR EXEC AP*    FAIR      79  70  73 S7        29.94R
FRANKLIN*      CLOUDY    81  72  73 S6        29.92R
US460-WAKEFLD  CLOUDY    82  69  64 S3        29.90R
$$

VAZ020-022-025-037-045-010100-
WEST CENTRAL AND SOUTHWEST VIRGINIA

CITY           SKY/WX    TMP DP  RH WIND       PRES   REMARKS
STAUNTON*      CLOUDY    75  69  82 CALM      29.95S
WAYNESBORO*    CLOUDY    75  65  71 CALM      29.95S
HOT SPRINGS VA MOCLDY    75  57  53 W3        30.07S
LYNCHBURG      MOCLDY    77  69  76 CALM      29.92F
DANVILLE       MOCLDY    80  70  71 S3        29.91R
SOUTH BOSTON*  FAIR      83  67  58 CALM      29.90R
MARTINSVILLE   PTCLDY    77  73  88 CALM      29.95S
ROANOKE        CLOUDY    76  70  82 CALM      29.95S THUNDER
BLACKSBURG     MOCLDY    77  70  78 E3        30.02R
DUBLIN*        CLOUDY    79  70  74 W3        30.00S
MARION*        MOCLDY    71  69  92 CALM      30.05R
HILLSVILLE*    LGT RAIN  71  69  94 E6        30.03R
RICHLANDS*     FAIR      75  68  79 W3        30.03S
WISE*          CLEAR     77  59  53 CALM      30.04S
ABINGDON*      PTCLDY    82  67  60 CALM      30.00R
$$

MDZ021>025-VAZ099-100-010100-
SOUTHERN MARYLAND AND THE DELMARVA PENINSULA

CITY           SKY/WX    TMP DP  RH WIND       PRES   REMARKS
PATUXENT RIVER PTCLDY    80  63  55 S6        29.89R
BAY BRIDGE APT CLEAR     82  70  65 MISG      29.89R
LEONARDTOWN    CLEAR     79  64  61 SE3       29.92R
DOVER          PTCLDY    79  69  73 SE8       29.89R
GEORGETOWN     PTCLDY    77  67  71 S6        29.92R
EASTON         NOT AVBL
CAMBRIDGE      CLEAR     77  64  65 SE3       29.90R
SALISBURY      CLOUDY    77  68  73 S3        29.91R
OCEAN CITY     PTCLDY    80  69  69 S6        29.91R
WALLOPS ISLAND PTCLDY    79  70  74 S7        29.92R
ACCOMACK*      MOCLDY    76  68  75 SE6       29.91S
$$

NCZ012>017-030>032-010100-
NORTH CENTRAL AND EASTERN NORTH CAROLINA

CITY           SKY/WX    TMP DP  RH WIND       PRES   REMARKS
ROANOKE RAPIDS FAIR      81  68  65 S5        29.92R
RALEIGH        MOCLDY    84  67  56 S7        29.92S
ELIZABETH CITY CLOUDY    80  71  74 SE6       29.93S
AHOSKIE*       CLEAR     79  72  79 S3        29.92S
EDENTON*       CLOUDY    82  70  66 SE3       29.93S
CURRITUCK*       N/A     79  73  82 CALM      29.93F
KILL DEVIL HLS CLOUDY    79  75  89 E3        29.92S
MANTEO         CLOUDY    78  74  88 CALM      29.94R
CAPE HATTERAS  CLOUDY    80  75  84 CALM      29.94R
TARBORO*       FAIR      81  73  75 CALM      29.93S
GOLDSBORO      CLOUDY    81  77  85 SE6       29.91S
WASHINGTON     CLOUDY    80  73  78 S6        29.92F
GREENVILLE     CLOUDY    81  73  78 S5        29.95R
NEW BERN       CLOUDY    79  75  87 S5        29.94S
WILMINGTON     CLOUDY    77  73  87 CALM      29.93S
$$

VAZ048-010100-
ELSEWHERE

CITY           SKY/WX    TMP DP  RH WIND       PRES   REMARKS
HARRISBURG PA  CLOUDY    77  71  82 E3        29.90R
BALTIMORE      MOCLDY    81  70  69 S5        29.88R
ANNAPOLIS      CLEAR     83  70  64 S9        29.88R
ANDREWS AFB    CLOUDY    80  69  67 SE7       29.88R
PHILADELPHIA   CLOUDY    85  67  54 SW10      29.89R
HENDERSON NC   PTCLDY    79  67  65 S3        29.92R
GREENSBORO     MOCLDY    83  68  60 S7        29.93R
ROCKY MOUNT    PTCLDY    80  73  79 S5        29.92R
$$

VAZ100-010100-
MARINE

STATION/POSITION TIME  TEMP    WIND        PRES    WAVE   SWELL
                       AIR SEA DIR/SP/G            HT/PER HT/PER
                 (UTC) (F)     (DEG/KT/KT) (MB)    (FT/S) (FT/S)
BRANDYWINE LGT   2300   76     180/ 12/ 14   N/A
CAPE MAY NJ      2300      80              1011.8
LEWES DE         2300      78              1011.9
OCEAN-CITY-INLET 2300      80              1012.9
WACHAPREAGUE VA  2300      86              1012.7
THOMAS POINT MD  0000   83 83  180/ 17/ 18 1013.2R
GOOSES REEF MD   0000   84 83  180/ 16/ 17 1012.6R   2/ 3
COVE POINT MD    2300                      1012.2
SOLOMONS ISLAND  2300      86                N/A
BISHOPS HEAD MD  2300      87              1012.2
PINEY POINT MD   2300          180/ 14/ 15   N/A
POTOMAC MD       0000   83 83  190/ 12/ 14 1011.5R   1/ 3
CAMBRIDGE MD     2300      84              1010.8
LEWISETTA VA     2300      85              1011.5
RAPPAHANNOCK LGT 2300                      1013.0F
STINGRAY PT      0000   83 84  110/ 14/ 17 1013.0R   2/ 2
YORK RVR RNG VA  2300                      1011.9
YORKTOWN VA      2300                      1012.0
JAMESTOWN VA     0000   84 86  130/ 10/ 12   N/A     1/ 2
DOMINION TERM VA 2300                      1012.6
KIPTOPEKE VA     2300      83                N/A
CHES BAY BRIDGE  2300      81              1012.7
CAPE HENRY VA    2306   79     150/  7/ 11   N/A
WILLOUBY STN VA  2306   83     120/  9/ 10   N/A
CAPE HENRY BUOY  2312      81                N/A     3/11   2/11
1ST LANDING BUOY 0000   80 81  170/ 12/ 12 1012.6R   2/ 4
CAPE CHARLES BUO 2356      80                N/A     3/12   2/12
OFFSHORE WE BUOY 2321      81                N/A     3/12   2/12
64NM E OF VA BCH 2350   80 81   30/  2/  4 1012.9R   3/11   3/11
DUCK PIER NC     2300      80              1012.8
44056 DUCK FRF   2311      80                N/A     3/10   2/12
OREGON INLET NC  2300      81              1013.2
HATTERAS NC      2300      83              1013.2
DIAMOND SHLS NC  2350   81 85   CALM  /  2 1013.7R   3/12   3/12
CAPE LOOKOUT NC  0000   79     220/  2/  2 1013.3S
$$




USA.gov is the U.S. government's official web portal to all federal, state and local government web resources and services.